Lid_Strength_Index
2 2 3 3 6 6 8 7 6 7 7 5 4 5 5 6 6 8 1 0 -0 -0 -1 -1 -1 -1 -1 -1 -1 -1 -1 -1 -1 -1 -1 -1 -1 -1 -1 -1 -1 -1 -1 -1 -1 -1 -1 -1 -1
3 4 4 5 8 9 8 7 7 6 5 4 4 5 6 8 5 7 4 0 -1 -1 -1 -1 -1 -1 -1 -1 -1 -1 -1 -1 -1 -1 -1 -1 -1 -1 -1 -1 -1 -1 -1 -1 -1 -1 -1 -1 -1
3 3 6 8 8 9 8 6 6 5 4 4 7 5 6 7 7 8 4 -0 -1 -1 -1 -1 -1 -1 -1 -1 -1 -1 -1 -1 -1 -1 -1 -1 -1 -1 -1 -1 -1 -1 -1 -1 -1 -1 -1 -1 -1
4 5 6 9 9 7 7 6 5 5 5 5 5 6 6 2 3 3 0 -0 -0 -1 -1 -1 -1 -1 -1 -1 -1 -1 -1 -1 -1 -1 -1 -1 -1 -1 -1 -1 -1 -1 -1 -1 -1 -1 -1 -1 -1
4 6 9 9 8 7 7 4 4 5 5 5 5 7 6 2 1 0 0 -0 -0 -0 -1 -1 -1 -1 -1 -1 -1 -1 -1 -1 -1 -1 -1 -1 -1 -1 -1 -1 -1 -1 -1 -1 -1 -1 -1 -1 -1
7 7 10 10 8 7 6 4 4 5 5 6 6 6 4 1 1 1 -0 -0 -0 -0 -1 -1 -1 -1 -1 -1 -1 -1 -1 -1 -1 -1 -1 -1 -1 -1 -1 -1 -1 -1 -1 -1 -1 -1 -1 -1 -1
8 9 10 9 8 8 7 4 5 5 6 6 5 6 4 2 1 0 0 -0 -0 -1 -1 -1 -1 -1 -1 -1 -1 -1 -1 -1 -1 -1 -1 -1 -1 -1 -1 -1 -1 -1 -1 -1 -1 -1 -1 -1 -1
7 8 10 9 9 9 7 6 5 5 6 6 5 6 5 3 1 0 0 0 -0 -0 -0 -1 -1 -1 -1 -1 -1 -1 -1 -1 -1 -1 -1 -1 -1 -1 -1 -1 -1 -1 -1 -1 -1 -1 -1 -1 -1
5 8 10 9 8 7 6 7 5 6 7 6 6 5 2 1 1 1 1 1 1 0 -0 -1 -1 -1 -1 -1 -1 -1 -1 -1 -1 -1 -1 -1 -2 -2 -1 -2 -1 -1 -1 -1 -1 -1 -1 -1 -2
7 8 8 6 6 6 6 5 6 6 6 7 5 2 2 1 2 2 2 2 2 1 0 -0 -1 -1 -1 -1 -1 -1 -1 -1 -1 -1 -1 -1 -2 -2 -1 -2 -1 -1 -1 -1 -2 -1 -1 -1 -2
6 8 7 7 5 5 6 5 5 5 6 5 4 3 2 2 2 2 2 1 1 1 0 -0 -0 -1 0 1 0 -0 -2 -2 -2 -1 -2 -2 -2 -2 -1 -1 -1 -2 -1 -1 -1 -1 -1 -2 -1
9 7 7 7 6 6 6 5 6 5 5 4 2 2 2 2 2 2 2 1 1 1 4 3 2 3 2 2 -1 -1 -1 -2 -2 -2 -2 -2 -1 -2 -2 -1 -1 -1 -1 -1 -1 -1 -1 -1 -1
8 8 7 7 7 6 5 6 5 5 5 4 2 2 2 2 2 1 1 1 1 3 4 3 2 0 -1 -2 -1 -1 -2 -1 -2 -3 -2 -2 -1 -1 -1 -1 -1 -1 -1 -1 -1 -1 -1 -1 -1
6 7 7 7 7 7 6 6 6 5 5 4 3 3 3 2 2 1 1 1 1 0 -0 -0 -1 -1 -1 -1 -2 -1 -2 -1 -1 -2 -1 -2 -1 -2 -1 -1 -1 -1 -2 -1 -1 -1 -1 -0 -1
6 7 6 6 6 6 6 8 7 5 4 5 4 4 3 3 2 1 1 1 0 0 -0 -1 -1 -1 -1 -1 -1 -2 -1 -1 -1 -1 -2 -1 -1 -2 -2 -1 -1 -1 -2 -2 -2 -1 -1 -0 -0
7 6 8 6 6 6 6 8 5 4 5 5 5 4 4 3 2 2 1 0 -0 -0 -0 -1 0 -1 -1 -2 -1 -2 -2 -2 -2 -2 -2 -1 -0 -1 -1 -0 -1 -1 -2 -1 -1 -1 -0 -0 -0
8 9 8 7 6 6 7 7 5 4 5 5 5 4 4 3 2 1 1 0 0 -0 -0 -0 -1 -1 -1 -1 -2 -2 -2 -2 -2 -2 -2 -1 -0 -0 -0 -0 -0 -2 -1 -1 -1 -1 -1 0 0
10 10 8 8 7 7 7 7 6 5 5 5 5 4 4 4 3 1 1 0 0 -0 -1 -1 -1 -1 -1 -1 -1 -1 -1 -1 -2 -1 -1 -0 -0 0 -0 0 -1 -1 -0 -0 -1 -1 -1 -0 0
8 8 9 8 7 7 8 7 6 5 6 5 5 4 4 4 2 1 1 0 0 -0 -0 -0 -0 -1 -1 -0 0 -0 -0 -1 -1 -1 -0 0 0 0 -0 1 0 -1 -0 -1 -1 -1 -0 0 -0
9 9 9 7 7 7 7 8 6 5 5 5 5 4 4 3 3 2 1 1 1 0 0 -0 -0 -1 -1 -0 -1 -1 -1 -1 0 -0 -0 0 1 1 1 0 1 0 1 -1 -1 -0 1 0 -0
8 9 9 9 7 7 8 8 7 6 5 5 4 4 4 4 3 2 2 1 1 1 0 0 -0 -1 -1 -1 -1 -1 -0 -0 0 0 1 1 1 1 1 1 1 1 0 1 -0 -1 -0 1 0
9 7 8 8 9 11 7 12 7 6 6 5 4 4 4 3 3 2 2 2 1 1 0 -0 -0 -1 -1 -1 -1 -0 1 1 1 1 1 1 1 1 1 1 1 0 1 0 0 -0 -0 0 2
9 8 7 7 8 8 9 10 8 6 7 6 5 4 3 3 3 3 2 1 1 1 0 -0 -0 -0 -1 -1 -1 0 0 1 1 2 1 0 1 1 1 1 1 0 0 -0 -0 -0 -0 0 1
7 8 8 8 8 12 9 10 9 8 7 6 5 4 3 3 3 3 2 1 1 1 0 0 0 -0 -1 -0 -0 -0 -0 0 1 1 2 2 2 2 1 1 1 1 1 1 1 -0 -0 -0 0
7 8 12 12 12 13 9 10 9 7 7 6 5 4 4 3 3 2 3 2 1 1 1 1 0 1 -0 0 0 0 0 0 1 1 2 2 3 3 1 1 1 1 1 1 1 1 1 0 1
8 8 12 16 14 12 9 12 9 6 5 5 4 4 4 3 3 2 2 2 1 1 1 1 1 1 0 0 1 0 0 2 2 1 2 3 3 2 1 1 1 1 1 1 1 2 1 1 1
8 9 7 10 9 12 10 9 7 5 5 5 4 4 4 4 3 3 2 2 1 1 1 1 1 0 0 0 1 1 1 1 1 1 1 3 2 2 1 1 1 1 1 1 1 2 2 1 1
7 6 10 10 14 15 11 10 10 8 6 5 5 5 4 3 3 3 2 2 1 1 1 0 0 0 0 0 1 1 1 1 1 1 2 2 1 1 1 1 1 2 2 2 2 2 2 2 2
8 9 8 9 10 13 14 11 6 6 6 5 5 4 4 4 3 3 2 2 1 1 1 1 0 1 1 1 1 1 1 1 2 2 2 2 1 1 1 2 2 2 3 3 4 3 3 3 2
7 8 8 14 13 10 11 11 5 5 5 4 5 4 4 3 3 2 2 2 1 1 1 1 1 1 1 1 1 1 1 1 2 2 2 1 1 1 1 2 2 3 3 4 4 4 4 4 4